DW6885 Weather Reports


Display with metric or nautical units.
time (UTC)temp
F
wind
direction
speed
MPH
gust
MPH
rain 1hr
in
rain 24hr
in
rain mn
in
humidity
%
barometer
mb
20160501055509 43 267 1.0 2.0 0.00 0.00 0.00 71 1021.7
20160501055501 42 267 0.0 3.0 0.00 0.00 0.00 71 1021.6
20160501054513 43 267 0.0 1.0 0.00 0.00 0.00 72 1021.7
20160501053902 43 267 0.0 1.0 0.00 0.00 0.00 71 1021.7
20160501052508 44 267 0.0 1.0 0.00 0.00 0.00 71 1021.9
20160501052301 43 267 0.0 1.0 0.00 0.00 0.00 70 1021.9
20160501051508 44 267 0.0 2.0 0.00 0.00 0.00 69 1021.8
20160501050901 44 267 0.0 2.0 0.00 0.00 0.00 69 1021.8
20160501050508 44 267 0.0 3.0 0.00 0.00 0.00 68 1021.9
20160501045306 44 213 0.0 3.0 0.00 0.00 0.00 68 1021.9
20160501044513 45 259 1.0 3.0 0.00 0.00 0.00 67 1022.0
20160501043707 45 232 0.0 3.0 0.00 0.00 0.00 67 1022.0
20160501042514 46 229 2.0 5.0 0.00 0.00 0.00 67 1022.2
20160501042207 45 309 0.0 2.0 0.00 0.00 0.00 67 1022.2
20160501040707 46 223 0.0 7.0 0.00 0.00 0.00 66 1022.1
20160501040511 46 223 1.0 7.0 0.00 0.00 0.00 66 1022.2
20160501035511 47 272 0.0 3.0 0.00 0.00 0.00 65 1022.2
20160501035206 46 272 3.0 9.0 0.00 0.00 0.00 65 1022.0
20160501034510 47 224 1.0 3.0 0.00 0.00 0.00 65 1021.9
20160501033706 47 259 0.0 5.0 0.00 0.00 0.00 65 1021.9
20160501033510 47 270 1.0 6.0 0.00 0.00 0.00 64 1021.9
20160501032008 47 214 0.0 4.0 0.00 0.00 0.00 63 1022.0
20160501031512 48 208 2.0 3.0 0.00 0.00 0.00 63 1021.9
20160501030507 48 303 0.0 6.0 0.00 0.00 0.00 63 1022.1
20160501025007 48 194 0.0 4.0 0.00 0.00 0.00 63 1021.8
20160501024511 49 219 2.0 3.0 0.00 0.00 0.00 62 1021.8
20160501023407 49 225 0.0 4.0 0.00 0.00 0.00 62 1021.8
20160501021907 49 299 0.0 4.0 0.00 0.00 0.00 61 1021.8
20160501020512 50 236 2.0 6.0 0.00 0.00 0.00 62 1021.8
20160501015513 50 156 1.0 5.0 0.00 0.00 0.00 65 1021.8
20160501014907 49 180 0.0 4.0 0.00 0.00 0.00 66 1021.8
20160501013408 49 74 0.0 2.0 0.00 0.00 0.00 67 1021.7
20160501012510 49 63 0.0 2.0 0.00 0.00 0.00 68 1021.6
20160501011706 49 63 0.0 2.0 0.00 0.00 0.00 67 1021.6
20160501010206 50 63 0.0 2.0 0.00 0.00 0.00 67 1021.4
20160501005510 51 63 0.0 2.0 0.00 0.00 0.00 65 1021.4
20160501004707 51 63 0.0 2.0 0.00 0.00 0.00 63 1021.4
20160501003206 52 63 0.0 3.0 0.00 0.00 0.00 58 1021.3
20160501002511 53 244 0.0 2.0 0.00 0.00 0.00 58 1021.3
20160501001707 53 236 0.0 1.0 0.00 0.00 0.00 57 1021.3
20160501001510 54 236 0.0 2.0 0.00 0.00 0.00 56 1021.3
20160501000511 54 311 0.0 3.0 0.00 0.00 0.00 54 1021.3
20160501000007 54 311 0.0 3.0 0.00 0.00 0.00 52 1021.2
20160430235510 55 311 0.0 3.0 0.00 0.00 0.00 52 1021.0
20160430234510 56 311 0.0 2.0 0.00 0.00 0.00 49 1021.0
20160430234507 56 311 0.0 1.0 0.00 0.00 0.00 49 1021.0
20160430233510 57 300 0.0 3.0 0.00 0.00 0.00 49 1020.7
20160430233007 58 300 1.0 3.0 0.00 0.00 0.00 49 1020.7
20160430232510 59 99 0.0 3.0 0.00 0.00 0.00 47 1020.6
20160430231510 60 190 0.0 3.0 0.00 0.00 0.00 50 1020.4
20160430231407 59 191 0.0 2.0 0.00 0.00 0.00 50 1020.4
20160430225906 60 191 0.0 2.0 0.00 0.00 0.00 48 1020.1
20160430224407 61 260 0.0 3.0 0.00 0.00 0.00 45 1020.0
20160430222907 61 274 0.0 4.0 0.00 0.00 0.00 45 1020.0
20160430221510 62 136 1.0 3.0 0.00 0.00 0.00 45 1020.2
20160430221407 61 136 0.0 4.0 0.00 0.00 0.00 45 1020.2
20160430220510 62 256 1.0 3.0 0.00 0.00 0.00 44 1020.3
20160430215707 61 192 1.0 4.0 0.00 0.00 0.00 47 1020.4
20160430215509 62 192 1.0 3.0 0.00 0.00 0.00 44 1020.4
20160430214206 61 219 1.0 4.0 0.00 0.00 0.00 43 1020.4
20160430212707 61 259 1.0 4.0 0.00 0.00 0.00 42 1020.4
20160430212510 62 175 1.0 5.0 0.00 0.00 0.00 43 1020.4
20160430211511 62 192 2.0 5.0 0.00 0.00 0.00 44 1020.4
20160430211207 61 257 0.0 3.0 0.00 0.00 0.00 43 1020.4
20160430210510 62 230 1.0 3.0 0.00 0.00 0.00 42 1020.4
20160430205706 61 281 0.0 5.0 0.00 0.00 0.00 43 1020.5
20160430204510 62 284 1.0 3.0 0.00 0.00 0.00 43 1020.3
20160430204206 61 284 1.0 6.0 0.00 0.00 0.00 45 1020.2
20160430203511 62 231 2.0 3.0 0.00 0.00 0.00 44 1020.2
20160430202510 62 218 0.0 3.0 0.00 0.00 0.00 45 1020.3
20160430202507 61 215 0.0 3.0 0.00 0.00 0.00 46 1020.3
20160430201007 61 286 0.0 3.0 0.00 0.00 0.00 45 1020.3
20160430200512 62 209 1.0 2.0 0.00 0.00 0.00 44 1020.3
20160430195509 62 209 1.0 3.0 0.00 0.00 0.00 45 1020.4
20160430195407 61 208 0.0 4.0 0.00 0.00 0.00 45 1020.4
20160430193907 62 212 1.0 4.0 0.00 0.00 0.00 43 1020.2
20160430192510 62 220 0.0 2.0 0.00 0.00 0.00 46 1020.2
20160430192406 61 220 0.0 2.0 0.00 0.00 0.00 46 1020.1
20160430191510 61 207 0.0 3.0 0.00 0.00 0.00 44 1020.2
20160430190906 61 302 1.0 3.0 0.00 0.00 0.00 44 1020.2
20160430190510 62 271 1.0 3.0 0.00 0.00 0.00 45 1020.3
20160430185510 62 210 2.0 3.0 0.00 0.00 0.00 45 1020.3
20160430185406 61 202 1.0 4.0 0.00 0.00 0.00 45 1020.3
20160430184510 61 154 1.0 3.0 0.00 0.00 0.00 48 1020.3
20160430183906 60 232 0.0 4.0 0.00 0.00 0.00 48 1020.3
20160430182509 61 226 1.0 3.0 0.00 0.00 0.00 46 1020.2
20160430182206 61 161 0.0 3.0 0.00 0.00 0.00 49 1020.2
20160430180706 61 150 0.0 3.0 0.00 0.00 0.00 46 1020.1
20160430180510 61 150 1.0 3.0 0.00 0.00 0.00 46 1020.1
20160430175207 61 117 1.0 3.0 0.00 0.00 0.00 46 1020.0
20160430174510 61 341 1.0 3.0 0.00 0.00 0.00 45 1020.2
20160430173706 61 11 1.0 4.0 0.00 0.00 0.00 45 1020.2
20160430172207 61 205 2.0 5.0 0.00 0.00 0.00 44 1020.3
20160430170506 62 321 0.0 4.0 0.00 0.00 0.00 43 1020.3
20160430165510 62 319 1.0 7.0 0.00 0.00 0.00 48 1020.4
20160430165407 62 220 0.0 6.0 0.00 0.00 0.00 47 1020.4
20160430164510 62 207 4.0 7.0 0.00 0.00 0.00 42 1020.5
20160430163510 62 282 2.0 7.0 0.00 0.00 0.00 49 1020.6
20160430163507 61 291 2.0 7.0 0.00 0.00 0.00 45 1020.6
20160430162006 59 51 1.0 4.0 0.00 0.00 0.00 49 1020.4
20160430161510 59 344 1.0 5.0 0.00 0.00 0.00 45 1020.5
20160430160510 59 24 2.0 8.0 0.00 0.00 0.00 48 1020.7
20160430160407 59 38 1.0 8.0 0.00 0.00 0.00 48 1020.7
20160430155510 58 246 2.0 8.0 0.00 0.00 0.00 49 1020.9
20160430154906 58 214 1.0 7.0 0.00 0.00 0.00 51 1020.9
20160430153407 57 39 2.0 6.0 0.00 0.00 0.00 51 1021.0
20160430152510 56 246 2.0 7.0 0.00 0.00 0.00 53 1021.4
20160430151706 56 223 3.0 5.0 0.00 0.00 0.00 54 1021.3
20160430150510 56 6 2.0 3.0 0.00 0.00 0.00 54 1021.5
20160430150206 55 192 0.0 5.0 0.00 0.00 0.00 55 1021.5
20160430144705 54 327 1.0 4.0 0.00 0.00 0.00 61 1021.5
20160430144511 54 173 1.0 3.0 0.00 0.00 0.00 60 1021.5
20160430143511 52 153 2.0 3.0 0.00 0.00 0.00 61 1021.5
20160430143206 52 204 2.0 4.0 0.00 0.00 0.00 62 1021.5
20160430141706 50 246 1.0 4.0 0.00 0.00 0.00 63 1022.0
20160430140510 50 323 1.0 3.0 0.00 0.00 0.00 66 1022.2
20160430140009 49 101 0.0 2.0 0.00 0.00 0.00 66 1022.1
20160430135509 49 178 1.0 3.0 0.00 0.00 0.00 65 1022.2
20160430134509 48 193 1.0 2.0 0.00 0.00 0.00 66 1022.2
20160430134507 47 193 0.0 2.0 0.00 0.00 0.00 66 1022.2
20160430131406 46 178 0.0 3.0 0.00 0.00 0.00 68 1022.7
20160430130509 46 355 1.0 3.0 0.00 0.00 0.00 69 1022.7
20160430125906 45 223 0.0 4.0 0.00 0.00 0.00 71 1022.6
20160430125510 46 222 1.0 3.0 0.00 0.00 0.00 71 1022.7
20160430124510 45 223 0.0 2.0 0.00 0.00 0.00 72 1022.5
20160430124406 45 223 0.0 2.0 0.00 0.00 0.00 71 1022.5
20160430122907 44 261 0.0 3.0 0.00 0.00 0.00 72 1022.3
20160430122509 45 248 0.0 2.0 0.00 0.00 0.00 75 1022.4
20160430121510 44 338 0.0 2.0 0.00 0.00 0.00 75 1022.1
20160430121406 43 338 0.0 3.0 0.00 0.00 0.00 75 1022.1
20160430115706 42 277 0.0 0.0 0.00 0.00 0.00 81 1022.2
20160430115509 42 277 0.0 1.0 0.00 0.00 0.00 81 1022.2
20160430114511 41 277 0.0 0.0 0.00 0.00 0.00 82 1022.2
20160430114206 41 277 0.0 0.0 0.00 0.00 0.00 83 1022.2
20160430113509 41 277 0.0 0.0 0.00 0.00 0.00 85 1022.3
20160430112706 40 277 0.0 0.0 0.00 0.00 0.00 86 1022.0
20160430112509 40 277 0.0 0.0 0.00 0.00 0.00 87 1022.0
20160430111206 39 277 0.0 0.0 0.00 0.00 0.00 90 1021.8
20160430105705 37 277 0.0 0.0 0.00 0.00 0.00 91 1021.6
20160430104206 36 277 0.0 0.0 0.00 0.00 0.00 91 1021.6
20160430102507 35 277 0.0 0.0 0.00 0.00 0.00 90 1021.2
20160430101509 35 277 0.0 0.0 0.00 0.00 0.00 89 1021.0
20160430101006 35 277 0.0 0.0 0.00 0.00 0.00 89 1020.8
20160430095509 36 277 0.0 0.0 0.00 0.00 0.00 87 1020.3
20160430095507 35 277 0.0 0.0 0.00 0.00 0.00 87 1020.4
20160430093906 36 277 0.0 0.0 0.00 0.00 0.00 86 1019.9
20160430092406 37 277 0.0 0.0 0.00 0.00 0.00 84 1019.6
20160430091519 38 277 0.0 0.0 0.00 0.00 0.00 83 1019.5
20160430090906 38 277 0.0 0.0 0.00 0.00 0.00 82 1019.4
20160430085406 39 277 0.0 0.0 0.00 0.00 0.00 80 1019.4
20160430083906 40 277 0.0 0.0 0.00 0.00 0.00 78 1019.3
20160430082509 42 277 0.0 1.0 0.00 0.00 0.00 77 1019.2
20160430082205 41 277 0.0 1.0 0.00 0.00 0.00 77 1019.2
20160430081510 42 277 0.0 1.0 0.00 0.00 0.00 77 1019.5
20160430080706 42 277 0.0 0.0 0.00 0.00 0.00 72 1019.8
20160430080509 43 277 0.0 0.0 0.00 0.00 0.00 73 1019.7
20160430075509 43 277 0.0 0.0 0.00 0.00 0.00 74 1019.8
20160430075205 43 277 0.0 0.0 0.00 0.00 0.00 73 1019.8
20160430074510 43 277 0.0 2.0 0.00 0.00 0.00 72 1019.8
20160430073706 43 247 0.0 0.0 0.00 0.00 0.00 72 1019.7
20160430073511 43 247 0.0 0.0 0.00 0.00 0.00 72 1019.7
20160430072206 43 247 0.0 1.0 0.00 0.00 0.00 73 1019.8
20160430071509 43 247 0.0 2.0 0.00 0.00 0.00 74 1019.9
20160430070510 43 247 0.0 2.0 0.00 0.00 0.00 76 1019.9
20160430070508 43 247 0.0 2.0 0.00 0.00 0.00 76 1019.9
20160430065007 43 190 0.0 0.0 0.00 0.00 0.00 78 1019.8
20160430063507 43 190 0.0 1.0 0.00 0.00 0.00 78 1019.7
20160430062306 43 190 0.0 1.0 0.00 0.00 0.00 78 1019.8
20160430061511 44 190 0.0 1.0 0.00 0.00 0.00 78 1019.8